• In Russia
  • List of Countries
  • For 7 days
  • Water Temperature
  • Satellite Maps
  • Weather Map
  • Weather Widgets
  • user-avatar
    Login

    Hourly Weather Linz

    Today, 21 July, Friday

    Time Temperature Precipitation Wind Pressure Humidity
    00:00 +20°C° 1 mm 1 mps 733 mmHg 97%
    01:00 +19°C° 0 mm 1 mps 733 mmHg 95%
    02:00 +18°C° 0 mm 1 mps 733 mmHg 95%
    03:00 +18°C° 0 mm 1 mps 733 mmHg 95%
    04:00 +18°C° 0 mm 1 mps 733 mmHg 95%
    05:00 +19°C° 0 mm 1 mps 733 mmHg 93%
    06:00 +18°C° 0 mm 0 mps 733 mmHg 91%
    07:00 +21°C° 0 mm 1 mps 734 mmHg 87%
    08:00 +23°C° 0 mm 1 mps 734 mmHg 77%
    09:00 +26°C° 0 mm 1 mps 734 mmHg 67%
    10:00 +28°C° 0 mm 1 mps 733 mmHg 57%
    11:00 +29°C° 0 mm 1 mps 733 mmHg 54%
    12:00 +30°C° 0 mm 2 mps 733 mmHg 50%
    13:00 +30°C° 0 mm 2 mps 733 mmHg 47%
    14:00 +30°C° 0 mm 2 mps 732 mmHg 47%
    15:00 +30°C° 0 mm 3 mps 732 mmHg 48%
    16:00 +30°C° 0 mm 3 mps 732 mmHg 48%
    17:00 +29°C° 0 mm 3 mps 732 mmHg 56%
    18:00 +27°C° 0 mm 2 mps 732 mmHg 64%
    19:00 +26°C° 0 mm 2 mps 732 mmHg 72%
    20:00 +24°C° 0.3 mm 2 mps 732 mmHg 75%
    21:00 +23°C° 0.3 mm 2 mps 732 mmHg 78%
    22:00 +21°C° 0.3 mm 2 mps 732 mmHg 81%
    23:00 +20°C° 0.1 mm 2 mps 732 mmHg 82%

    Tomorrow, 22 July, Saturday

    Time Temperature Precipitation Wind Pressure Humidity
    00:00 +20°C° 0.1 mm 2 mps 732 mmHg 83%
    01:00 +19°C° 0.1 mm 2 mps 732 mmHg 84%
    02:00 +19°C° 0 mm 2 mps 732 mmHg 85%
    03:00 +20°C° 0 mm 1 mps 732 mmHg 86%
    04:00 +19°C° 0 mm 1 mps 732 mmHg 86%
    05:00 +20°C° 0.1 mm 1 mps 732 mmHg 83%
    06:00 +22°C° 0.1 mm 1 mps 732 mmHg 80%
    07:00 +21°C° 0.1 mm 0 mps 732 mmHg 77%
    08:00 +24°C° 0 mm 1 mps 732 mmHg 71%
    09:00 +26°C° 0 mm 1 mps 732 mmHg 66%
    10:00 +28°C° 0 mm 1 mps 733 mmHg 60%
    11:00 +29°C° 0.1 mm 1 mps 732 mmHg 58%
    12:00 +30°C° 0.1 mm 2 mps 732 mmHg 56%
    13:00 +31°C° 0.1 mm 2 mps 732 mmHg 53%
    14:00 +31°C° 0.2 mm 2 mps 732 mmHg 54%
    15:00 +30°C° 0.2 mm 1 mps 732 mmHg 55%
    16:00 +30°C° 0.2 mm 1 mps 732 mmHg 56%
    17:00 +29°C° 0.3 mm 1 mps 732 mmHg 63%
    18:00 +27°C° 0.3 mm 1 mps 732 mmHg 69%
    19:00 +26°C° 0.3 mm 1 mps 732 mmHg 76%
    20:00 +25°C° 0.1 mm 1 mps 732 mmHg 78%
    21:00 +24°C° 0.1 mm 1 mps 732 mmHg 79%
    22:00 +23°C° 0.1 mm 1 mps 733 mmHg 81%
    23:00 +22°C° 0.3 mm 1 mps 732 mmHg 83%

    Day after tomorrow, 23 July, Sunday

    Time Temperature Precipitation Wind Pressure Humidity
    00:00 +22°C° 0.3 mm 1 mps 732 mmHg 84%
    01:00 +21°C° 0.3 mm 1 mps 732 mmHg 86%
    02:00 +21°C° 0.5 mm 1 mps 732 mmHg 88%
    03:00 +21°C° 0.5 mm 1 mps 732 mmHg 90%
    04:00 +20°C° 0.5 mm 1 mps 732 mmHg 92%
    05:00 +21°C° 0.9 mm 1 mps 733 mmHg 92%
    06:00 +21°C° 0.9 mm 1 mps 733 mmHg 92%
    07:00 +21°C° 0.9 mm 2 mps 733 mmHg 93%
    08:00 +23°C° 0.6 mm 2 mps 733 mmHg 87%
    09:00 +25°C° 0.6 mm 2 mps 733 mmHg 81%
    10:00 +26°C° 0.6 mm 2 mps 733 mmHg 75%
    11:00 +26°C° 0.7 mm 2 mps 733 mmHg 74%
    12:00 +27°C° 0.7 mm 2 mps 733 mmHg 73%
    13:00 +27°C° 0.7 mm 3 mps 733 mmHg 72%
    14:00 +26°C° 0.7 mm 3 mps 733 mmHg 74%
    15:00 +26°C° 0.7 mm 3 mps 733 mmHg 77%
    16:00 +26°C° 0.7 mm 3 mps 733 mmHg 79%
    17:00 +25°C° 0.6 mm 2 mps 733 mmHg 83%
    18:00 +24°C° 0.6 mm 2 mps 733 mmHg 86%
    19:00 +23°C° 0.6 mm 1 mps 733 mmHg 90%
    20:00 +22°C° 1.3 mm 1 mps 733 mmHg 92%
    21:00 +20°C° 1.3 mm 2 mps 734 mmHg 93%
    22:00 +19°C° 1.3 mm 2 mps 734 mmHg 95%
    23:00 +19°C° 3.2 mm 2 mps 734 mmHg 96%

    24 July, Monday

    Time Temperature Precipitation Wind Pressure Humidity
    00:00 +19°C° 3.2 mm 1 mps 733 mmHg 96%
    01:00 +19°C° 3.2 mm 1 mps 733 mmHg 97%
    02:00 +19°C° 0.7 mm 1 mps 733 mmHg 96%
    03:00 +18°C° 0.7 mm 1 mps 733 mmHg 96%
    04:00 +18°C° 0.7 mm 1 mps 732 mmHg 96%
    05:00 +19°C° 0.1 mm 1 mps 732 mmHg 95%
    06:00 +19°C° 0.1 mm 1 mps 732 mmHg 94%
    07:00 +20°C° 0.1 mm 1 mps 731 mmHg 94%
    08:00 +20°C° 0.3 mm 1 mps 731 mmHg 90%
    09:00 +21°C° 0.3 mm 1 mps 731 mmHg 86%
    10:00 +22°C° 0.3 mm 1 mps 730 mmHg 83%
    11:00 +21°C° 0.3 mm 2 mps 730 mmHg 83%
    12:00 +21°C° 0.3 mm 2 mps 729 mmHg 84%
    13:00 +21°C° 0.3 mm 2 mps 728 mmHg 85%
    14:00 +21°C° 0.9 mm 2 mps 728 mmHg 86%
    15:00 +21°C° 0.9 mm 2 mps 728 mmHg 87%
    16:00 +20°C° 0.9 mm 2 mps 727 mmHg 88%
    17:00 +19°C° 4.1 mm 3 mps 727 mmHg 91%
    18:00 +18°C° 4.1 mm 3 mps 727 mmHg 93%
    19:00 +17°C° 4.1 mm 4 mps 727 mmHg 96%
    20:00 +17°C° 4.2 mm 4 mps 727 mmHg 96%
    21:00 +16°C° 4.2 mm 3 mps 727 mmHg 96%
    22:00 +16°C° 4.2 mm 3 mps 727 mmHg 96%
    23:00 +14°C° 1.7 mm 3 mps 727 mmHg 97%

    25 July, Tuesday

    Time Temperature Precipitation Wind Pressure Humidity
    00:00 +14°C° 1.7 mm 3 mps 727 mmHg 97%
    01:00 +15°C° 1.7 mm 2 mps 727 mmHg 97%
    02:00 +14°C° 0.4 mm 3 mps 727 mmHg 97%
    03:00 +14°C° 0.4 mm 3 mps 727 mmHg 97%
    04:00 +14°C° 0.4 mm 3 mps 726 mmHg 96%
    05:00 +14°C° 0.1 mm 4 mps 726 mmHg 96%
    06:00 +14°C° 0.1 mm 4 mps 726 mmHg 95%
    07:00 +14°C° 0.1 mm 4 mps 727 mmHg 94%
    08:00 +15°C° 0.1 mm 4 mps 727 mmHg 90%
    09:00 +17°C° 0.1 mm 4 mps 726 mmHg 86%
    10:00 +17°C° 0.1 mm 5 mps 726 mmHg 82%
    11:00 +17°C° 0.1 mm 5 mps 726 mmHg 77%
    12:00 +19°C° 0.1 mm 5 mps 726 mmHg 71%
    13:00 +20°C° 0.1 mm 5 mps 726 mmHg 66%
    14:00 +20°C° 0.2 mm 5 mps 726 mmHg 69%
    15:00 +20°C° 0.2 mm 4 mps 726 mmHg 72%
    16:00 +19°C° 0.2 mm 4 mps 726 mmHg 75%
    17:00 +19°C° 0.2 mm 4 mps 727 mmHg 79%
    18:00 +18°C° 0.2 mm 3 mps 727 mmHg 83%
    19:00 +17°C° 0.2 mm 3 mps 727 mmHg 87%
    20:00 +16°C° 0.1 mm 3 mps 727 mmHg 89%
    21:00 +16°C° 0.1 mm 3 mps 728 mmHg 90%
    22:00 +14°C° 0.1 mm 3 mps 728 mmHg 92%
    23:00 +14°C° 0 mm 3 mps 728 mmHg 93%

    26 July, Wednesday

    Time Temperature Precipitation Wind Pressure Humidity
    00:00 +14°C° 0 mm 3 mps 728 mmHg 93%
    01:00 +13°C° 0 mm 4 mps 728 mmHg 94%
    02:00 +13°C° 0.1 mm 4 mps 728 mmHg 94%
    03:00 +13°C° 0.1 mm 4 mps 728 mmHg 94%
    04:00 +13°C° 0.1 mm 4 mps 728 mmHg 94%
    05:00 +14°C° 0.2 mm 4 mps 728 mmHg 93%
    06:00 +14°C° 0.2 mm 4 mps 728 mmHg 92%
    07:00 +14°C° 0.2 mm 4 mps 728 mmHg 91%
    08:00 +14°C° 0.3 mm 4 mps 728 mmHg 91%
    09:00 +14°C° 0.3 mm 4 mps 728 mmHg 92%
    10:00 +14°C° 0.3 mm 4 mps 729 mmHg 92%
    11:00 +14°C° 0.5 mm 4 mps 729 mmHg 92%
    12:00 +14°C° 0.5 mm 4 mps 729 mmHg 93%
    13:00 +14°C° 0.5 mm 4 mps 729 mmHg 93%
    14:00 +14°C° 0.3 mm 4 mps 730 mmHg 93%
    15:00 +15°C° 0.3 mm 4 mps 730 mmHg 93%
    16:00 +15°C° 0.3 mm 4 mps 730 mmHg 92%
    17:00 +15°C° 0.2 mm 4 mps 730 mmHg 93%
    18:00 +14°C° 0.2 mm 3 mps 731 mmHg 93%
    19:00 +14°C° 0.2 mm 3 mps 731 mmHg 93%
    20:00 +14°C° 0.2 mm 3 mps 731 mmHg 94%
    21:00 +14°C° 0.2 mm 3 mps 732 mmHg 94%
    22:00 +13°C° 0.2 mm 3 mps 732 mmHg 95%
    23:00 +13°C° 0.3 mm 3 mps 732 mmHg 95%
    Show more